Palm Springs, CA

11:34 AM PDT on April 22, 2018 (GMT -0700)
Palm Springs International

Weather History for KPSP - March, 2013

Change the Weather History Date:

Saturday, March 9, 2013

  Actual Average Record
Temperature  
Mean Temperature 58 °F 65 °F  
Max Temperature 70 °F 77 °F 97 °F (1972)
Min Temperature 45 °F 52 °F 33 °F (1947)
Degree Days  
Heating Degree Days 7 3  
Month to date heating degree days 22 27  
Since 1 July heating degree days 760 805  
Cooling Degree Days 0 2  
Month to date cooling degree days 22 16  
Year to date cooling degree days 34 43  
Growing Degree Days 7 (Base 50)    
Moisture  
Dew Point 38 °F    
Average Humidity 52    
Maximum Humidity 76    
Minimum Humidity 28    
Precipitation  
Precipitation 0.00 in 0.02 in 0.23 in (1973)
Month to date precipitation 0.04 0.38  
Year to date precipitation 0.97 2.41  
Since 1 July precipitation 2.19  
Snow  
Snow 0.00 in - - ()
Month to date snowfall 0.0  
Year to date snowfall 0.0  
Snow Depth 0.00 in    
Sea Level Pressure  
Sea Level Pressure 30.03 in    
Wind  
Wind Speed 5 mph (NNW)    
Max Wind Speed 18 mph    
Max Gust Speed 30 mph    
Visibility 10 miles    
Events      
T = Trace of Precipitation, MM = Missing Value Source: NWS Daily Summary

Daily Weather History Graph

Daily Weather History Graph

Search for Another Location

Airport or City:

Astronomy

Mar. 09, 2013 Rise Set
Actual Time 6:03 AM PST 5:49 PM PST
Civil Twilight 5:39 AM PST 6:14 PM PST
Nautical Twilight 5:10 AM PST 6:43 PM PST
Astronomical Twilight 4:41 AM PST 7:12 PM PST
Moon 4:26 AM PST (3/9) 3:59 PM PST (3/9)
Length of Visible Light 12h 35m
Length of Day
11h 45m
Waning Crescent, 5% of the Moon is Illuminated
Mar 9
Waning Crescent
Mar 11
New
Mar 19
First Quarter
Mar 27
Full
Apr 2
Last Quarter

Hourly Weather History & Observations

Time (PST) Temp. Windchill Dew Point Humidity Pressure Visibility Wind Dir Wind Speed Gust Speed Precip Events Conditions
12:53 AM 48.0 °F - 37.9 °F 68% 29.94 in 10.0 mi Calm Calm - N/A   Clear
1:53 AM 46.9 °F - 37.9 °F 71% 29.94 in 10.0 mi Calm Calm - N/A   Clear
2:53 AM 48.0 °F - 37.9 °F 68% 29.95 in 10.0 mi Calm Calm - N/A   Clear
4:53 AM 46.9 °F - 37.9 °F 71% 29.96 in 10.0 mi Calm Calm - N/A   Clear
5:53 AM 45.0 °F 43.5 °F 37.9 °F 76% 29.98 in 10.0 mi SW 3.5 mph - N/A   Partly Cloudy
6:53 AM 48.0 °F - 37.9 °F 68% 29.99 in 10.0 mi North 3.5 mph - N/A   Clear
7:53 AM 53.1 °F - 37.9 °F 57% 30.02 in 10.0 mi Calm Calm - N/A   Partly Cloudy
8:53 AM 57.0 °F - 37.0 °F 47% 30.05 in 10.0 mi East 4.6 mph - N/A   Clear
9:53 AM 60.1 °F - 36.0 °F 41% 30.06 in 10.0 mi East 3.5 mph - N/A   Clear
10:53 AM 63.0 °F - 36.0 °F 37% 30.04 in 10.0 mi Calm Calm - N/A   Scattered Clouds
11:53 AM 66.9 °F - 35.1 °F 31% 30.03 in 10.0 mi NNE 5.8 mph - N/A   Scattered Clouds
12:53 PM 69.1 °F - 35.1 °F 29% 30.01 in 10.0 mi NW 15.0 mph 18.4 mph N/A   Scattered Clouds
1:53 PM 69.1 °F - 35.1 °F 29% 30.00 in 10.0 mi NW 13.8 mph 20.7 mph N/A   Scattered Clouds
2:53 PM 68.0 °F - 36.0 °F 31% 30.01 in 10.0 mi NW 16.1 mph 23.0 mph N/A   Clear
3:53 PM 66.9 °F - 37.0 °F 33% 30.01 in 10.0 mi NW 15.0 mph - N/A   Overcast
4:53 PM 66.0 °F - 37.9 °F 36% 30.02 in 10.0 mi WNW 15.0 mph 20.7 mph N/A   Scattered Clouds
5:53 PM 64.0 °F - 37.9 °F 38% 30.05 in 10.0 mi NW 10.4 mph 18.4 mph N/A   Clear
6:53 PM 63.0 °F - 39.0 °F 41% 30.06 in 10.0 mi WNW 6.9 mph - N/A   Clear
7:53 PM 63.0 °F - 37.9 °F 40% 30.08 in 10.0 mi NW 11.5 mph - N/A   Clear
8:53 PM 60.1 °F - 37.9 °F 44% 30.10 in 10.0 mi Variable 3.5 mph - N/A   Clear
9:53 PM 59.0 °F - 39.9 °F 49% 30.12 in 10.0 mi NNE 8.1 mph - N/A   Clear
10:53 PM 55.9 °F - 41.0 °F 57% 30.12 in 10.0 mi Calm Calm - N/A   Clear
11:53 PM 54.0 °F - 42.1 °F 64% 30.13 in 10.0 mi Calm Calm - N/A   Clear